• en Suisse
  • Liste des pays
  • À 7 jours
  • Température de l'eau
  • Carte satellitaire
  • Carte météo
  • Widgets météo
  • user-avatar
    Se connecter

    Météo par heure à Sharabino

    Ce jour, 21 Octobre, Dimanche

    Heure Température Précipitation Vent Pression Humidité
    00:00 +5°C° 0 mm 1 m/s 763 mmHg 93%
    01:00 +5°C° 0 mm 1 m/s 763 mmHg 94%
    02:00 +5°C° 0 mm 1 m/s 763 mmHg 94%
    03:00 +5°C° 0 mm 1 m/s 763 mmHg 94%
    04:00 +5°C° 0 mm 1 m/s 763 mmHg 95%
    05:00 +4°C° 0 mm 1 m/s 763 mmHg 95%
    06:00 +4°C° 0 mm 1 m/s 763 mmHg 95%
    07:00 +4°C° 0 mm 1 m/s 764 mmHg 95%
    08:00 +5°C° 0 mm 1 m/s 764 mmHg 94%
    09:00 +6°C° 0 mm 1 m/s 764 mmHg 88%
    10:00 +8°C° 0 mm 1 m/s 764 mmHg 81%
    11:00 +9°C° 0 mm 1 m/s 764 mmHg 74%
    12:00 +9°C° 0 mm 1 m/s 764 mmHg 72%
    13:00 +9°C° 0 mm 2 m/s 764 mmHg 70%
    14:00 +9°C° 0 mm 2 m/s 764 mmHg 67%
    15:00 +8°C° 0 mm 2 m/s 764 mmHg 73%
    16:00 +7°C° 0 mm 2 m/s 764 mmHg 79%
    17:00 +6°C° 0 mm 2 m/s 763 mmHg 84%
    18:00 +6°C° 0 mm 2 m/s 763 mmHg 86%
    19:00 +5°C° 0 mm 2 m/s 763 mmHg 88%
    20:00 +5°C° 0 mm 2 m/s 763 mmHg 90%
    21:00 +4°C° 0 mm 3 m/s 763 mmHg 90%
    22:00 +4°C° 0 mm 3 m/s 762 mmHg 90%
    23:00 +4°C° 0 mm 3 m/s 762 mmHg 90%

    Demain, 22 Octobre, Lundi

    Heure Température Précipitation Vent Pression Humidité
    00:00 +4°C° 0 mm 4 m/s 762 mmHg 90%
    01:00 +4°C° 0 mm 4 m/s 761 mmHg 90%
    02:00 +4°C° 0 mm 4 m/s 761 mmHg 90%
    03:00 +4°C° 0 mm 4 m/s 760 mmHg 90%
    04:00 +4°C° 0 mm 4 m/s 760 mmHg 91%
    05:00 +3°C° 0 mm 5 m/s 759 mmHg 91%
    06:00 +5°C° 0 mm 5 m/s 759 mmHg 90%
    07:00 +5°C° 0 mm 5 m/s 758 mmHg 89%
    08:00 +6°C° 0 mm 5 m/s 758 mmHg 88%
    09:00 +5°C° 0 mm 6 m/s 757 mmHg 86%
    10:00 +7°C° 0 mm 6 m/s 757 mmHg 84%
    11:00 +7°C° 0 mm 6 m/s 756 mmHg 81%
    12:00 +8°C° 0.2 mm 6 m/s 756 mmHg 82%
    13:00 +8°C° 0.2 mm 6 m/s 755 mmHg 82%
    14:00 +8°C° 0.2 mm 6 m/s 755 mmHg 82%
    15:00 +8°C° 0.7 mm 5 m/s 754 mmHg 84%
    16:00 +8°C° 0.7 mm 5 m/s 754 mmHg 86%
    17:00 +8°C° 0.7 mm 4 m/s 754 mmHg 88%
    18:00 +8°C° 0.3 mm 4 m/s 754 mmHg 88%
    19:00 +8°C° 0.3 mm 4 m/s 754 mmHg 87%
    20:00 +7°C° 0.3 mm 4 m/s 754 mmHg 87%
    21:00 +7°C° 0 mm 4 m/s 754 mmHg 84%
    22:00 +7°C° 0 mm 3 m/s 754 mmHg 82%
    23:00 +5°C° 0 mm 3 m/s 754 mmHg 79%

    Après-demain, 23 Octobre, Mardi

    Heure Température Précipitation Vent Pression Humidité
    00:00 +4°C° 0 mm 3 m/s 754 mmHg 81%
    01:00 +4°C° 0 mm 3 m/s 754 mmHg 82%
    02:00 +3°C° 0 mm 3 m/s 754 mmHg 83%
    03:00 +3°C° 0 mm 2 m/s 754 mmHg 85%
    04:00 +3°C° 0 mm 2 m/s 754 mmHg 86%
    05:00 +3°C° 0 mm 2 m/s 753 mmHg 88%
    06:00 +3°C° 0 mm 2 m/s 753 mmHg 88%
    07:00 +3°C° 0 mm 2 m/s 752 mmHg 88%
    08:00 +3°C° 0 mm 2 m/s 752 mmHg 88%
    09:00 +3°C° 0 mm 3 m/s 751 mmHg 84%
    10:00 +4°C° 0 mm 3 m/s 750 mmHg 79%
    11:00 +5°C° 0 mm 4 m/s 750 mmHg 75%
    12:00 +6°C° 0 mm 4 m/s 748 mmHg 72%
    13:00 +6°C° 0 mm 4 m/s 747 mmHg 70%
    14:00 +6°C° 0 mm 5 m/s 746 mmHg 67%
    15:00 +5°C° 0.1 mm 5 m/s 745 mmHg 70%
    16:00 +5°C° 0.1 mm 5 m/s 743 mmHg 72%
    17:00 +3°C° 0.1 mm 5 m/s 742 mmHg 74%
    18:00 +3°C° 0.8 mm 6 m/s 740 mmHg 76%
    19:00 +3°C° 0.8 mm 6 m/s 739 mmHg 78%
    20:00 +3°C° 0.8 mm 6 m/s 737 mmHg 79%
    21:00 +3°C° 1 mm 6 m/s 736 mmHg 81%
    22:00 +3°C° 1 mm 6 m/s 735 mmHg 83%
    23:00 +3°C° 1 mm 5 m/s 734 mmHg 84%

    24 Octobre, Mercredi

    Heure Température Précipitation Vent Pression Humidité
    00:00 +3°C° 0.8 mm 5 m/s 733 mmHg 86%
    01:00 +4°C° 0.8 mm 4 m/s 732 mmHg 87%
    02:00 +4°C° 0.8 mm 4 m/s 731 mmHg 89%
    03:00 +4°C° 0.3 mm 3 m/s 731 mmHg 90%
    04:00 +4°C° 0.3 mm 3 m/s 731 mmHg 91%
    05:00 +5°C° 0.3 mm 2 m/s 730 mmHg 92%
    06:00 +5°C° 0.1 mm 2 m/s 730 mmHg 92%
    07:00 +5°C° 0.1 mm 2 m/s 730 mmHg 92%
    08:00 +5°C° 0.1 mm 2 m/s 730 mmHg 92%
    09:00 +6°C° 0.1 mm 2 m/s 730 mmHg 91%
    10:00 +7°C° 0.1 mm 1 m/s 730 mmHg 89%
    11:00 +7°C° 0.1 mm 1 m/s 730 mmHg 88%
    12:00 +7°C° 0.1 mm 1 m/s 731 mmHg 87%
    13:00 +8°C° 0.1 mm 1 m/s 731 mmHg 86%
    14:00 +8°C° 0.1 mm 1 m/s 731 mmHg 85%
    15:00 +6°C° 0.2 mm 2 m/s 731 mmHg 87%
    16:00 +6°C° 0.2 mm 2 m/s 732 mmHg 89%
    17:00 +6°C° 0.2 mm 2 m/s 732 mmHg 91%
    18:00 +5°C° 0.2 mm 3 m/s 733 mmHg 91%
    19:00 +4°C° 0.2 mm 3 m/s 733 mmHg 91%
    20:00 +4°C° 0.2 mm 3 m/s 734 mmHg 91%
    21:00 +4°C° 0.2 mm 4 m/s 734 mmHg 89%
    22:00 +4°C° 0.2 mm 4 m/s 735 mmHg 88%
    23:00 +4°C° 0.2 mm 4 m/s 735 mmHg 86%

    25 Octobre, Jeudi

    Heure Température Précipitation Vent Pression Humidité
    00:00 +3°C° 0.2 mm 5 m/s 735 mmHg 86%
    01:00 +3°C° 0.2 mm 5 m/s 736 mmHg 86%
    02:00 +3°C° 0.2 mm 5 m/s 736 mmHg 86%
    03:00 +3°C° 0.3 mm 5 m/s 736 mmHg 85%
    04:00 +3°C° 0.3 mm 5 m/s 737 mmHg 84%
    05:00 +3°C° 0.3 mm 5 m/s 737 mmHg 83%
    06:00 +3°C° 0.3 mm 5 m/s 737 mmHg 83%
    07:00 +3°C° 0.3 mm 6 m/s 737 mmHg 82%
    08:00 +3°C° 0.3 mm 6 m/s 737 mmHg 81%
    09:00 +3°C° 0.2 mm 6 m/s 738 mmHg 79%
    10:00 +3°C° 0.2 mm 5 m/s 738 mmHg 77%
    11:00 +5°C° 0.2 mm 5 m/s 738 mmHg 76%
    12:00 +5°C° 0.1 mm 5 m/s 738 mmHg 74%
    13:00 +5°C° 0.1 mm 5 m/s 738 mmHg 73%
    14:00 +5°C° 0.1 mm 4 m/s 738 mmHg 71%
    15:00 +4°C° 0 mm 4 m/s 738 mmHg 76%
    16:00 +3°C° 0 mm 3 m/s 738 mmHg 80%
    17:00 +4°C° 0 mm 2 m/s 738 mmHg 85%
    18:00 +3°C° 0 mm 2 m/s 738 mmHg 87%
    19:00 +3°C° 0 mm 2 m/s 738 mmHg 89%
    20:00 +3°C° 0 mm 1 m/s 738 mmHg 91%
    21:00 +3°C° 0 mm 1 m/s 738 mmHg 92%
    22:00 +3°C° 0 mm 1 m/s 738 mmHg 92%
    23:00 +3°C° 0 mm 1 m/s 738 mmHg 93%

    26 Octobre, Vendredi

    Heure Température Précipitation Vent Pression Humidité
    00:00 +2°C° 0 mm 1 m/s 738 mmHg 94%
    01:00 +2°C° 0 mm 1 m/s 738 mmHg 94%
    02:00 +2°C° 0 mm 1 m/s 739 mmHg 94%
    03:00 +2°C° 0 mm 1 m/s 739 mmHg 94%
    04:00 +2°C° 0 mm 1 m/s 739 mmHg 95%
    05:00 +2°C° 0 mm 1 m/s 739 mmHg 95%
    06:00 +2°C° 0 mm 1 m/s 739 mmHg 95%
    07:00 +2°C° 0 mm 1 m/s 740 mmHg 95%
    08:00 +2°C° 0 mm 1 m/s 740 mmHg 95%
    09:00 +3°C° 0 mm 2 m/s 740 mmHg 90%
    10:00 +4°C° 0 mm 2 m/s 741 mmHg 84%
    11:00 +5°C° 0 mm 2 m/s 741 mmHg 79%
    12:00 +4°C° 0.2 mm 3 m/s 741 mmHg 77%
    13:00 +4°C° 0.2 mm 3 m/s 741 mmHg 75%
    14:00 +5°C° 0.2 mm 3 m/s 741 mmHg 73%
    15:00 +4°C° 0 mm 3 m/s 742 mmHg 77%
    16:00 +3°C° 0 mm 3 m/s 742 mmHg 81%
    17:00 +3°C° 0 mm 2 m/s 742 mmHg 85%
    18:00 +3°C° 0 mm 2 m/s 742 mmHg 86%
    19:00 +2°C° 0 mm 2 m/s 743 mmHg 88%
    20:00 +2°C° 0 mm 2 m/s 743 mmHg 89%
    21:00 +1°C° 0 mm 2 m/s 743 mmHg 90%
    22:00 +1°C° 0 mm 2 m/s 743 mmHg 91%
    23:00 +1°C° 0 mm 2 m/s 743 mmHg 92%
    Voir plus